Location: Sark
(49.4440°N, 2.3620°W)
Time: 20:44:29
(UTC+01:00)

OTV 5 (USA 277) - Visible Passes

Search period start: 19 June 2018 00:00
Search period end: 29 June 2018 00:00
Orbit: 313 x 320 km, 54.5° (Epoch: 18 June)

Date Brightness Start Highest point End Pass type
(mag) Time Alt. Az. Time Alt. Az. Time Alt. Az.
19 Jun ? 01:03:12 10° WNW 01:05:36 27° N 01:07:59 10° ENE visible
19 Jun ? 02:37:30 10° WNW 02:40:14 69° NNE 02:42:56 10° ESE visible
19 Jun ? 04:12:23 10° W 04:14:16 17° SW 04:16:07 10° S visible
19 Jun ? 22:08:10 10° WSW 22:10:52 78° NNW 22:13:35 10° ENE visible
19 Jun ? 23:43:03 10° WNW 23:45:28 27° N 23:47:52 10° NE visible
20 Jun ? 01:17:44 10° NW 01:20:14 33° NNE 01:22:45 10° E visible
20 Jun ? 02:52:00 10° WNW 02:54:40 55° SSW 02:57:20 10° SE visible
20 Jun ? 22:22:47 10° W 22:25:24 43° NNW 22:28:01 10° NE visible
20 Jun ? 23:57:45 10° WNW 00:00:07 26° N 00:02:30 10° ENE visible
21 Jun ? 01:32:10 10° WNW 01:34:49 50° NNE 01:37:29 10° E visible
21 Jun ? 03:06:41 10° W 03:08:23 22° WSW 03:08:23 22° WSW visible
21 Jun ? 22:37:32 10° WNW 22:40:00 30° NNW 22:42:28 10° NE visible
22 Jun ? 00:12:21 10° NW 00:14:47 29° N 00:17:14 10° ENE visible
22 Jun ? 01:46:36 10° WNW 01:49:19 84° SSW 01:49:39 65° SE visible
22 Jun ? 22:52:17 10° WNW 22:54:39 26° N 22:57:01 10° ENE visible
23 Jun ? 00:26:49 10° NW 00:29:24 39° NNE 00:31:35 13° E visible
23 Jun ? 02:01:10 10° WNW 02:02:23 21° W 02:02:23 21° W visible
23 Jun ? 23:06:56 10° WNW 23:09:19 27° N 23:11:42 10° ENE visible
24 Jun ? 00:41:14 10° WNW 00:43:57 68° NNE 00:44:38 44° E visible
24 Jun ? 23:21:27 10° NW 23:23:58 33° NNE 23:26:28 10° E visible
25 Jun ? 00:55:43 10° WNW 00:57:51 44° W 00:57:51 44° W visible
25 Jun ? 22:01:29 10° WNW 22:03:51 26° N 22:06:12 10° ENE visible
25 Jun ? 23:35:54 10° WNW 23:38:33 50° NNE 23:40:21 18° E visible
26 Jun ? 01:10:25 10° W 01:11:11 15° W 01:11:11 15° W visible
26 Jun ? 22:16:04 10° NW 22:18:30 29° N 22:20:56 10° ENE visible
26 Jun ? 23:50:20 10° WNW 23:53:03 85° SSW 23:53:45 44° SE visible
27 Jun ? 22:30:32 10° NW 22:33:08 39° NNE 22:35:42 10° E visible
28 Jun ? 00:04:53 10° WNW 00:07:14 37° SW 00:07:14 37° SW visible
28 Jun ? 22:44:58 10° WNW 22:47:40 67° NNE 22:49:55 14° ESE visible
